Hourly Data Report for September 09, 2017

All times are specified in Local Standard Time (LST). Add 1 hour to adjust for Daylight Saving Time where and when it is observed.

BATHURST A
NEW BRUNSWICK

47°37'47.000" N
65°44'20.000" W
58.80 m
8100505
71574
ZBF

Download Data

Hourly Data (September 2017)
Hourly Data Report for September 9, 2017
Temp Definition
°C
Dew Point Temp Definition
°C
Rel Hum Definition
%
Wind Dir Definition
10's deg

Wind Spd Definition
km/h
Visibility Definition
km
Stn Press Definition
kPa
Hmdx Definition


Wind Chill Definition


Weather Definition


TIME
00:00 Legend Double Dagger 12.5 12.0 97 2 5 11.3 101.18     LegendNANA
01:00 Legend Double Dagger 12.1 11.6 97 32 5 11.3 101.22     LegendNANA
02:00 Legend Double Dagger 11.7 11.2 97 23 3 11.3 101.23     Mostly Cloudy
03:00 Legend Double Dagger 12.3 11.9 97 36 3 6.4 101.27     Fog
04:00 Legend Double Dagger 12.3 12.1 98 3 5 0.8 101.32     Fog
05:00 Legend Double Dagger 12.2 11.9 98 3 3 9.7 101.38     Fog
06:00 Legend Double Dagger 12.6 11.9 96 36 3 12.9 101.46     LegendNANA
07:00 Legend Double Dagger 12.9 12.0 94 35 5 16.1 101.53     LegendNANA
08:00 Legend Double Dagger 13.4 12.3 93 33 7 19.3 101.58     Mostly Cloudy
09:00 Legend Double Dagger 15.7 11.5 76 1 7 24.1 101.60     LegendNANA
10:00 Legend Double Dagger 15.7 9.5 66 4 10 24.1 101.63     LegendNANA
11:00 Legend Double Dagger 16.3 10.4 68 3 13 24.1 101.66     Mostly Cloudy
12:00 Legend Double Dagger 16.7 11.4 71 5 12 24.1 101.65     LegendNANA
13:00 Legend Double Dagger 17.5 11.7 69 8 14 24.1 101.66     LegendNANA
14:00 Legend Double Dagger 17.8 11.5 66 3 16 24.1 101.64     Mainly Clear
15:00 Legend Double Dagger 18.3 10.5 60 6 13 24.1 101.60     LegendNANA
16:00 Legend Double Dagger 17.3 11.1 67 4 13 24.1 101.64     LegendNANA
17:00 Legend Double Dagger 16.1 11.0 72 5 16 24.1 101.67     Mainly Clear
18:00 Legend Double Dagger 14.7 11.5 81 2 11 24.1 101.70     LegendNANA
19:00 Legend Double Dagger 13.1 12.2 95 2 7 24.1 101.73     LegendNANA
20:00 Legend Double Dagger 12.1 11.5 96 34 6 19.3 101.79     Clear
21:00 Legend Double Dagger 11.4 10.9 97 33 7 19.3 101.81     LegendNANA
22:00 Legend Double Dagger 10.5 10.0 97 36 2 19.3 101.85     LegendNANA
23:00 Legend Double Dagger 9.5 9.2 98 26 3 24.1 101.84     Clear

Notes on Data Quality.

Legend

  • E = Estimated
  • M = Missing
  • NA = Not Available
  • ‡ = Partner data that is not subject to review by the National Climate Archives
Date modified: